QPF
0.00 0.00 0.00 0.00 0.00 0.02 0.01 0.00 0.00 0.00 0.00 0.00 0.00 0.00 0.00 0.00 0.00 0.02 0.00 0.00 0.00 0.00 0.00 0.00 0.00 0.00 0.00 0.00 0.00 0.00 0.00 0.00 0.00 0.00 0.00 0.00 0.00 0.00 0.00 0.00 0.00 0.00 0.00 0.00 0.00 0.00 0.00 0.00 0.00
0.00 0.00 0.01 0.01 0.01 0.01 0.00 0.00 0.00 0.00 0.00 0.00 0.00 0.00 0.00 0.00 0.00 0.00 0.00 0.00 0.00 0.00 0.00 0.00 0.00 0.00 0.00 0.00 0.00 0.00 0.00 0.00 0.00 0.00 0.00 0.00 0.00 0.00 0.00 0.00 0.00 0.00 0.00 0.00 0.00 0.00 0.00 0.00 0.00
0.00 0.00 0.01 0.00 0.01 0.01 0.00 0.00 0.00 0.00 0.00 0.00 0.00 0.00 0.00 0.00 0.00 0.00 0.00 0.00 0.00 0.00 0.00 0.00 0.00 0.00 0.00 0.00 0.00 0.00 0.00 0.00 0.00 0.00 0.00 0.00 0.00 0.00 0.00 0.00 0.00 0.00 0.00 0.00 0.00 0.00 0.00 0.00 0.00
0.00 0.00 0.01 0.01 0.01 0.01 0.00 0.00 0.00 0.00 0.00 0.00 0.00 0.00 0.00 0.00 0.00 0.00 0.00 0.00 0.00 0.00 0.00 0.00 0.00 0.00 0.00 0.00 0.00 0.00 0.00 0.00 0.00 0.00 0.00 0.00 0.00 0.00 0.00 0.00 0.00 0.00 0.00 0.00 0.00 0.00 0.00 0.00 0.00
0.00 0.00 0.00 0.01 0.02 0.00 0.00 0.00 0.00 0.00 0.00 0.00 0.00 0.00 0.00 0.00 0.00 0.00 0.00 0.00 0.00 0.00 0.00 0.00 0.00 0.00 0.00 0.00 0.00 0.00 0.00 0.00 0.00 0.00 0.00 0.00 0.00 0.00 0.00 0.00 0.00 0.00 0.00 0.00 0.00 0.00 0.00 0.00 0.00
0.00 0.00 0.00 0.01 0.02 0.01 0.00 0.00 0.00 0.00 0.00 0.00 0.00 0.00 0.00 0.00 0.00 0.00 0.00 0.00 0.00 0.00 0.00 0.00 0.00 0.00 0.00 0.00 0.00 0.00 0.00 0.00 0.00 0.00 0.00 0.00 0.00 0.00 0.00 0.00 0.00 0.00 0.00 0.00 0.00 0.00 0.00 0.00 0.00
0.00 0.00 0.00 0.00 0.01 0.01 0.00 0.00 0.00 0.00 0.00 0.00 0.00 0.00 0.00 0.00 0.00 0.00 0.00 0.00 0.00 0.00 0.00 0.00 0.00 0.00 0.00 0.00 0.00 0.00 0.00 0.00 0.00 0.00 0.00 0.00 0.00 0.00 0.00 0.00 0.00 0.00 0.00 0.00 0.00 0.00 0.00 0.00 0.00
0.00 0.00 0.00 0.00 0.00 0.00 0.00 0.00 0.00 0.00 0.00 0.00 0.00 0.00 0.00 0.00 0.00 0.00 0.00 0.00 0.00 0.00 0.00 0.00 0.00 0.00 0.00 0.00 0.00 0.00 0.00 0.00 0.00 0.00 0.00 0.00 0.00 0.00 0.00 0.00 0.00 0.00 0.00 0.00 0.00 0.00 0.00 0.00 0.00
0.00 0.00 0.00 0.00 0.00 0.00 0.00 0.00 0.00 0.00 0.00 0.00 0.00 0.00 0.00 0.00 0.00 0.00 0.00 0.00 0.00 0.00 0.00 0.00 0.00 0.00 0.00 0.00 0.00 0.00 0.00 0.00 0.00 0.00 0.00 0.00 0.00 0.01 0.03 0.03 0.04 0.02 0.01 0.01 0.00 0.00 0.01 0.01 0.00
0.00 0.00 0.00 0.00 0.00 0.00 0.00 0.00 0.00 0.01 0.02 0.01 0.00 0.00 0.00 0.00 0.00 0.00 0.00 0.00 0.00 0.00 0.00 0.00 0.00 0.00 0.00 0.00 0.00 0.00 0.00 0.01 0.01 0.01 0.04 0.05 0.06 0.03 0.01 0.04 0.04 0.03 0.03 0.01 0.00 0.01 0.01 0.01 0.00
0.00 0.00 0.00 0.00 0.00 0.00 0.00 0.00 0.00 0.00 0.03 0.06 0.10 0.05 0.01 0.00 0.00 0.00 0.00 0.00 0.00 0.00 0.00 0.00 0.00 0.00 0.00 0.00 0.00 0.00 0.00 0.01 0.02 0.01 0.04 0.06 0.05 0.03 0.01 0.01 0.05 0.08 0.06 0.04 0.04 0.04 0.02 0.02 0.03
0.00 0.00 0.00 0.00 0.00 0.00 0.00 0.00 0.00 0.00 0.02 0.09 0.20 0.12 0.03 0.00 0.00 0.00 0.00 0.00 0.00 0.00 0.00 0.00 0.00 0.00 0.00 0.00 0.00 0.00 0.00 0.00 0.00 0.02 0.02 0.04 0.05 0.03 0.02 0.03 0.03 0.07 0.09 0.13 0.09 0.09 0.07 0.07 0.06
0.00 0.00 0.00 0.00 0.00 0.00 0.00 0.00 0.00 0.00 0.02 0.04 0.06 0.03 0.01 0.00 0.00 0.00 0.00 0.00 0.00 0.00 0.00 0.00 0.00 0.00 0.00 0.00 0.00 0.00 0.00 0.00 0.00 0.01 0.01 0.03 0.05 0.05 0.06 0.05 0.05 0.04 0.06 0.11 0.12 0.09 0.10 0.13 0.10
0.00 0.00 0.00 0.00 0.00 0.00 0.00 0.00 0.00 0.00 0.00 0.01 0.01 0.02 0.01 0.00 0.00 0.00 0.00 0.00 0.00 0.00 0.00 0.00 0.00 0.00 0.00 0.00 0.00 0.01 0.00 0.01 0.01 0.01 0.02 0.05 0.06 0.09 0.09 0.10 0.11 0.09 0.11 0.14 0.15 0.12 0.15 0.14 0.16
0.00 0.00 0.00 0.00 0.00 0.00 0.00 0.00 0.00 0.00 0.00 0.00 0.00 0.00 0.00 0.00 0.00 0.00 0.00 0.00 0.00 0.00 0.00 0.00 0.00 0.00 0.00 0.01 0.02 0.02 0.01 0.01 0.02 0.03 0.03 0.06 0.10 0.15 0.14 0.14 0.14 0.15 0.16 0.18 0.15 0.16 0.18 0.15 0.16
0.00 0.00 0.00 0.00 0.00 0.00 0.00 0.00 0.00 0.00 0.00 0.01 0.01 0.01 0.00 0.00 0.01 0.00 0.00 0.01 0.01 0.01 0.00 0.00 0.00 0.00 0.01 0.03 0.03 0.03 0.02 0.03 0.03 0.04 0.06 0.05 0.10 0.13 0.14 0.14 0.14 0.19 0.19 0.18 0.17 0.18 0.20 0.20 0.20
0.00 0.00 0.00 0.00 0.00 0.00 0.00 0.00 0.00 0.00 0.01 0.03 0.03 0.03 0.00 0.01 0.02 0.01 0.02 0.03 0.02 0.01 0.00 0.01 0.01 0.02 0.03 0.04 0.03 0.03 0.03 0.03 0.03 0.04 0.05 0.05 0.06 0.08 0.10 0.10 0.11 0.12 0.13 0.13 0.14 0.22 0.20 0.21 0.22
0.00 0.00 0.00 0.00 0.00 0.00 0.00 0.00 0.00 0.00 0.01 0.04 0.05 0.03 0.01 0.01 0.01 0.02 0.03 0.02 0.02 0.02 0.03 0.04 0.04 0.05 0.06 0.05 0.04 0.03 0.03 0.02 0.02 0.01 0.02 0.02 0.03 0.03 0.04 0.04 0.05 0.06 0.07 0.07 0.09 0.12 0.13 0.13 0.12
0.00 0.00 0.00 0.00 0.00 0.00 0.00 0.00 0.00 0.02 0.03 0.03 0.07 0.07 0.04 0.03 0.05 0.07 0.06 0.04 0.04 0.05 0.09 0.10 0.09 0.05 0.05 0.05 0.03 0.02 0.01 0.01 0.01 0.00 0.00 0.00 0.00 0.00 0.00 0.01 0.01 0.02 0.03 0.04 0.05 0.06 0.06 0.06 0.09
0.00 0.00 0.00 0.00 0.00 0.00 0.00 0.00 0.00 0.00 0.01 0.01 0.03 0.04 0.05 0.08 0.08 0.09 0.10 0.07 0.08 0.12 0.14 0.13 0.09 0.07 0.05 0.04 0.03 0.01 0.01 0.00 0.00 0.00 0.00 0.00 0.00 0.00 0.00 0.00 0.00 0.00 0.01 0.01 0.02 0.03 0.03 0.03 0.07
0.00 0.00 0.00 0.00 0.00 0.00 0.00 0.00 0.00 0.00 0.02 0.06 0.08 0.08 0.08 0.11 0.13 0.12 0.13 0.12 0.13 0.17 0.18 0.13 0.09 0.06 0.04 0.04 0.03 0.02 0.01 0.01 0.01 0.00 0.00 0.00 0.00 0.00 0.00 0.00 0.00 0.00 0.00 0.00 0.01 0.02 0.02 0.03 0.04
0.00 0.00 0.00 0.00 0.00 0.00 0.00 0.00 0.00 0.01 0.09 0.20 0.23 0.21 0.18 0.23 0.19 0.19 0.20 0.18 0.21 0.23 0.21 0.15 0.09 0.06 0.05 0.03 0.03 0.03 0.02 0.01 0.01 0.00 0.00 0.00 0.00 0.00 0.00 0.00 0.00 0.00 0.00 0.00 0.01 0.01 0.02 0.03 0.02
0.00 0.00 0.00 0.00 0.00 0.00 0.00 0.00 0.00 0.01 0.08 0.22 0.25 0.15 0.17 0.13 0.12 0.18 0.22 0.21 0.17 0.15 0.14 0.13 0.10 0.07 0.06 0.04 0.04 0.04 0.04 0.03 0.02 0.02 0.01 0.00 0.00 0.00 0.00 0.00 0.00 0.00 0.00 0.01 0.01 0.01 0.01 0.02 0.02
0.00 0.00 0.00 0.00 0.01 0.01 0.03 0.02 0.02 0.03 0.07 0.11 0.09 0.05 0.05 0.06 0.07 0.09 0.10 0.10 0.09 0.07 0.06 0.06 0.07 0.08 0.07 0.06 0.06 0.06 0.05 0.04 0.03 0.03 0.02 0.01 0.00 0.00 0.00 0.00 0.00 0.00 0.00 0.01 0.01 0.01 0.01 0.02 0.03
0.00 0.00 0.01 0.04 0.08 0.10 0.09 0.05 0.04 0.03 0.02 0.01 0.01 0.01 0.02 0.03 0.05 0.06 0.06 0.06 0.07 0.07 0.07 0.06 0.07 0.13 0.12 0.10 0.09 0.09 0.08 0.05 0.05 0.05 0.03 0.02 0.01 0.00 0.01 0.01 0.01 0.01 0.01 0.01 0.01 0.01 0.01 0.02 0.03
0.00 0.00 0.00 0.01 0.02 0.04 0.04 0.04 0.08 0.12 0.04 0.01 0.00 0.00 0.01 0.01 0.03 0.05 0.07 0.10 0.10 0.08 0.08 0.08 0.08 0.10 0.12 0.12 0.12 0.10 0.09 0.07 0.06 0.10 0.07 0.04 0.03 0.02 0.02 0.01 0.01 0.01 0.01 0.01 0.01 0.01 0.01 0.02 0.02
0.00 0.00 0.00 0.00 0.00 0.00 0.02 0.06 0.11 0.20 0.12 0.04 0.01 0.00 0.00 0.01 0.02 0.03 0.06 0.08 0.08 0.07 0.06 0.07 0.07 0.08 0.08 0.09 0.10 0.11 0.12 0.11 0.10 0.10 0.09 0.07 0.08 0.05 0.04 0.04 0.03 0.02 0.01 0.01 0.01 0.02 0.02 0.02 0.03
0.00 0.00 0.00 0.00 0.00 0.00 0.01 0.08 0.17 0.28 0.24 0.09 0.02 0.01 0.00 0.00 0.01 0.01 0.01 0.02 0.03 0.02 0.03 0.03 0.03 0.03 0.04 0.04 0.05 0.06 0.09 0.10 0.11 0.11 0.10 0.10 0.09 0.09 0.07 0.06 0.05 0.03 0.02 0.01 0.01 0.02 0.02 0.02 0.03
0.00 0.00 0.00 0.00 0.00 0.00 0.02 0.06 0.09 0.12 0.10 0.05 0.01 0.00 0.00 0.00 0.00 0.00 0.00 0.01 0.01 0.01 0.01 0.01 0.01 0.02 0.01 0.02 0.02 0.03 0.04 0.05 0.07 0.08 0.09 0.10 0.08 0.07 0.07 0.06 0.05 0.04 0.03 0.02 0.02 0.02 0.02 0.02 0.03
0.00 0.00 0.00 0.00 0.00 0.00 0.02 0.06 0.04 0.04 0.04 0.02 0.01 0.00 0.00 0.00 0.00 0.00 0.00 0.00 0.00 0.00 0.00 0.01 0.01 0.01 0.01 0.01 0.01 0.01 0.01 0.02 0.03 0.05 0.06 0.07 0.08 0.07 0.07 0.07 0.06 0.05 0.04 0.03 0.03 0.02 0.01 0.02 0.04
MSLP
1005.95 1006.57 1007.20 1007.68 1007.90 1007.78 1007.34 1006.68 1005.93 1005.26 1004.83 1004.70 1004.88 1005.29 1005.83 1006.36 1006.77 1007.02 1007.12 1007.16 1007.23 1007.44 1007.83 1008.42 1009.14 1009.91 1010.62 1011.17 1011.53 1011.70 1011.74 1011.75 1011.81 1011.98 1012.28 1012.70 1013.17 1013.63 1014.01 1014.26 1014.40 1014.44 1014.44 1014.45 1014.50 1014.63 1014.80 1015.00 1015.19
1006.13 1006.79 1007.40 1007.82 1007.92 1007.68 1007.12 1006.37 1005.57 1004.89 1004.46 1004.34 1004.52 1004.92 1005.42 1005.90 1006.26 1006.49 1006.61 1006.72 1006.90 1007.24 1007.79 1008.52 1009.36 1010.21 1010.95 1011.50 1011.83 1011.96 1011.97 1011.96 1012.01 1012.19 1012.50 1012.92 1013.38 1013.81 1014.14 1014.36 1014.45 1014.47 1014.47 1014.50 1014.59 1014.75 1014.95 1015.17 1015.35
1006.43 1007.11 1007.68 1008.00 1007.98 1007.61 1006.95 1006.12 1005.28 1004.61 1004.20 1004.11 1004.30 1004.68 1005.15 1005.57 1005.89 1006.09 1006.22 1006.36 1006.63 1007.08 1007.75 1008.60 1009.54 1010.45 1011.22 1011.78 1012.11 1012.24 1012.26 1012.26 1012.33 1012.51 1012.82 1013.22 1013.63 1014.00 1014.26 1014.41 1014.46 1014.46 1014.46 1014.53 1014.67 1014.88 1015.12 1015.35 1015.52
1006.76 1007.43 1007.93 1008.15 1008.01 1007.53 1006.78 1005.91 1005.07 1004.42 1004.07 1004.02 1004.23 1004.61 1005.04 1005.41 1005.67 1005.83 1005.94 1006.10 1006.42 1006.95 1007.70 1008.62 1009.62 1010.58 1011.38 1011.96 1012.32 1012.48 1012.53 1012.57 1012.67 1012.87 1013.18 1013.54 1013.89 1014.17 1014.35 1014.42 1014.42 1014.40 1014.43 1014.54 1014.74 1015.00 1015.29 1015.54 1015.69
1007.03 1007.65 1008.06 1008.16 1007.92 1007.34 1006.55 1005.67 1004.88 1004.31 1004.04 1004.06 1004.31 1004.70 1005.10 1005.42 1005.61 1005.71 1005.78 1005.93 1006.26 1006.81 1007.59 1008.55 1009.58 1010.56 1011.38 1011.99 1012.37 1012.58 1012.69 1012.79 1012.94 1013.17 1013.47 1013.80 1014.08 1014.28 1014.37 1014.37 1014.33 1014.30 1014.35 1014.50 1014.76 1015.09 1015.41 1015.67 1015.81
1007.17 1007.69 1007.99 1007.97 1007.62 1006.99 1006.20 1005.37 1004.67 1004.22 1004.07 1004.19 1004.51 1004.91 1005.29 1005.56 1005.69 1005.72 1005.73 1005.84 1006.14 1006.68 1007.45 1008.39 1009.41 1010.38 1011.20 1011.82 1012.23 1012.49 1012.67 1012.83 1013.04 1013.30 1013.61 1013.90 1014.13 1014.26 1014.28 1014.22 1014.15 1014.11 1014.18 1014.38 1014.69 1015.06 1015.42 1015.69 1015.82
1007.14 1007.53 1007.69 1007.55 1007.12 1006.46 1005.70 1004.97 1004.41 1004.12 1004.12 1004.36 1004.76 1005.21 1005.58 1005.81 1005.87 1005.84 1005.79 1005.84 1006.09 1006.57 1007.30 1008.19 1009.15 1010.07 1010.86 1011.47 1011.89 1012.19 1012.41 1012.63 1012.89 1013.19 1013.51 1013.79 1013.98 1014.06 1014.03 1013.94 1013.84 1013.81 1013.90 1014.12 1014.46 1014.86 1015.24 1015.51 1015.63
1006.99 1007.22 1007.22 1006.96 1006.46 1005.81 1005.11 1004.51 1004.11 1003.99 1004.16 1004.54 1005.04 1005.53 1005.91 1006.11 1006.14 1006.05 1005.95 1005.94 1006.12 1006.54 1007.18 1007.99 1008.87 1009.71 1010.43 1011.00 1011.41 1011.71 1011.96 1012.21 1012.50 1012.83 1013.15 1013.43 1013.60 1013.66 1013.61 1013.50 1013.39 1013.37 1013.47 1013.71 1014.06 1014.47 1014.85 1015.12 1015.23
1006.79 1006.84 1006.69 1006.32 1005.77 1005.13 1004.52 1004.05 1003.81 1003.87 1004.19 1004.70 1005.29 1005.84 1006.24 1006.44 1006.45 1006.32 1006.18 1006.13 1006.25 1006.59 1007.15 1007.86 1008.63 1009.37 1010.00 1010.49 1010.85 1011.12 1011.35 1011.61 1011.91 1012.24 1012.58 1012.85 1013.03 1013.10 1013.05 1012.95 1012.85 1012.83 1012.93 1013.16 1013.51 1013.90 1014.26 1014.51 1014.62
1006.63 1006.52 1006.22 1005.75 1005.16 1004.55 1004.01 1003.66 1003.57 1003.77 1004.22 1004.84 1005.50 1006.09 1006.51 1006.72 1006.72 1006.59 1006.44 1006.36 1006.44 1006.72 1007.20 1007.81 1008.47 1009.09 1009.62 1010.02 1010.30 1010.51 1010.71 1010.93 1011.22 1011.54 1011.87 1012.16 1012.35 1012.44 1012.42 1012.33 1012.26 1012.24 1012.33 1012.55 1012.85 1013.21 1013.53 1013.77 1013.87
1006.57 1006.33 1005.92 1005.37 1004.75 1004.15 1003.68 1003.41 1003.42 1003.71 1004.24 1004.91 1005.61 1006.22 1006.66 1006.88 1006.89 1006.78 1006.63 1006.55 1006.62 1006.86 1007.28 1007.81 1008.38 1008.90 1009.33 1009.64 1009.84 1009.98 1010.11 1010.29 1010.53 1010.83 1011.15 1011.44 1011.66 1011.78 1011.80 1011.75 1011.70 1011.69 1011.77 1011.94 1012.20 1012.50 1012.77 1012.98 1013.07
1006.65 1006.32 1005.82 1005.22 1004.58 1003.99 1003.54 1003.32 1003.37 1003.69 1004.23 1004.90 1005.58 1006.18 1006.60 1006.83 1006.87 1006.79 1006.67 1006.62 1006.69 1006.93 1007.31 1007.80 1008.31 1008.77 1009.13 1009.37 1009.51 1009.58 1009.66 1009.78 1009.97 1010.23 1010.52 1010.81 1011.05 1011.21 1011.28 1011.28 1011.26 1011.26 1011.32 1011.45 1011.64 1011.87 1012.08 1012.24 1012.32
1006.84 1006.45 1005.91 1005.27 1004.62 1004.03 1003.59 1003.36 1003.39 1003.67 1004.15 1004.75 1005.37 1005.91 1006.30 1006.52 1006.58 1006.54 1006.46 1006.45 1006.56 1006.82 1007.21 1007.69 1008.19 1008.63 1008.97 1009.19 1009.30 1009.34 1009.37 1009.44 1009.58 1009.80 1010.07 1010.35 1010.61 1010.80 1010.92 1010.97 1010.98 1010.99 1011.02 1011.11 1011.23 1011.39 1011.53 1011.64 1011.70
1007.08 1006.66 1006.10 1005.46 1004.80 1004.21 1003.74 1003.48 1003.43 1003.61 1003.97 1004.45 1004.95 1005.40 1005.74 1005.93 1006.00 1005.99 1005.97 1006.01 1006.17 1006.47 1006.89 1007.40 1007.93 1008.41 1008.79 1009.04 1009.18 1009.24 1009.26 1009.30 1009.40 1009.58 1009.81 1010.08 1010.34 1010.56 1010.72 1010.82 1010.86 1010.88 1010.90 1010.94 1011.00 1011.08 1011.16 1011.22 1011.24
1007.28 1006.86 1006.31 1005.68 1005.04 1004.44 1003.94 1003.61 1003.45 1003.49 1003.70 1004.01 1004.37 1004.70 1004.97 1005.13 1005.20 1005.22 1005.24 1005.33 1005.54 1005.88 1006.36 1006.93 1007.52 1008.08 1008.54 1008.88 1009.09 1009.20 1009.26 1009.30 1009.38 1009.52 1009.72 1009.97 1010.22 1010.46 1010.65 1010.79 1010.86 1010.90 1010.91 1010.91 1010.92 1010.93 1010.95 1010.95 1010.93
1007.39 1006.98 1006.47 1005.88 1005.26 1004.67 1004.15 1003.74 1003.47 1003.36 1003.39 1003.53 1003.73 1003.94 1004.12 1004.25 1004.31 1004.35 1004.40 1004.53 1004.77 1005.16 1005.68 1006.31 1006.98 1007.63 1008.21 1008.67 1008.99 1009.19 1009.31 1009.38 1009.45 1009.57 1009.74 1009.95 1010.19 1010.43 1010.64 1010.81 1010.91 1010.96 1010.97 1010.95 1010.92 1010.88 1010.84 1010.79 1010.73
1007.39 1007.02 1006.56 1006.04 1005.49 1004.93 1004.40 1003.93 1003.55 1003.29 1003.16 1003.13 1003.18 1003.28 1003.38 1003.47 1003.53 1003.57 1003.65 1003.79 1004.05 1004.45 1004.99 1005.65 1006.39 1007.13 1007.82 1008.40 1008.85 1009.16 1009.35 1009.46 1009.55 1009.64 1009.77 1009.95 1010.17 1010.40 1010.62 1010.80 1010.94 1011.01 1011.02 1010.99 1010.93 1010.85 1010.76 1010.67 1010.58
1007.32 1007.00 1006.63 1006.21 1005.75 1005.26 1004.75 1004.24 1003.78 1003.40 1003.12 1002.95 1002.88 1002.88 1002.92 1002.98 1003.04 1003.09 1003.17 1003.31 1003.56 1003.93 1004.46 1005.12 1005.87 1006.67 1007.44 1008.12 1008.67 1009.08 1009.35 1009.51 1009.60 1009.68 1009.78 1009.92 1010.10 1010.32 1010.54 1010.74 1010.89 1010.98 1011.00 1010.97 1010.90 1010.80 1010.68 1010.56 1010.45
1007.24 1007.01 1006.76 1006.49 1006.16 1005.76 1005.30 1004.79 1004.27 1003.80 1003.40 1003.11 1002.94 1002.88 1002.89 1002.94 1003.00 1003.06 1003.14 1003.26 1003.46 1003.78 1004.24 1004.84 1005.56 1006.35 1007.14 1007.88 1008.50 1008.97 1009.30 1009.49 1009.59 1009.66 1009.73 1009.83 1009.98 1010.17 1010.38 1010.58 1010.75 1010.86 1010.91 1010.88 1010.81 1010.69 1010.56 1010.43 1010.30
1007.23 1007.12 1007.04 1006.94 1006.77 1006.50 1006.12 1005.63 1005.09 1004.54 1004.05 1003.68 1003.44 1003.33 1003.32 1003.38 1003.47 1003.55 1003.62 1003.71 1003.85 1004.07 1004.43 1004.92 1005.54 1006.26 1007.01 1007.74 1008.37 1008.87 1009.22 1009.43 1009.53 1009.58 1009.61 1009.68 1009.79 1009.96 1010.16 1010.37 1010.55 1010.68 1010.74 1010.73 1010.66 1010.54 1010.41 1010.27 1010.13
1007.34 1007.39 1007.50 1007.60 1007.62 1007.50 1007.21 1006.76 1006.21 1005.62 1005.06 1004.62 1004.33 1004.19 1004.18 1004.27 1004.38 1004.49 1004.57 1004.63 1004.70 1004.82 1005.03 1005.38 1005.86 1006.45 1007.10 1007.74 1008.33 1008.81 1009.15 1009.35 1009.44 1009.46 1009.47 1009.51 1009.59 1009.74 1009.93 1010.13 1010.32 1010.46 1010.54 1010.54 1010.47 1010.36 1010.23 1010.09 1009.96
1007.57 1007.81 1008.13 1008.44 1008.65 1008.68 1008.50 1008.10 1007.55 1006.92 1006.31 1005.81 1005.48 1005.32 1005.33 1005.44 1005.60 1005.75 1005.84 1005.88 1005.89 1005.91 1005.99 1006.16 1006.47 1006.89 1007.39 1007.92 1008.41 1008.82 1009.12 1009.29 1009.36 1009.36 1009.35 1009.36 1009.42 1009.54 1009.72 1009.92 1010.11 1010.25 1010.34 1010.34 1010.28 1010.18 1010.04 1009.90 1009.78
1007.88 1008.31 1008.84 1009.35 1009.74 1009.92 1009.84 1009.49 1008.94 1008.29 1007.63 1007.09 1006.71 1006.54 1006.56 1006.70 1006.91 1007.10 1007.23 1007.27 1007.24 1007.17 1007.13 1007.15 1007.28 1007.52 1007.85 1008.23 1008.61 1008.93 1009.16 1009.29 1009.33 1009.31 1009.28 1009.27 1009.30 1009.41 1009.56 1009.75 1009.93 1010.07 1010.15 1010.16 1010.10 1009.98 1009.84 1009.70 1009.58
1008.19 1008.79 1009.50 1010.19 1010.73 1011.04 1011.04 1010.75 1010.22 1009.54 1008.85 1008.27 1007.86 1007.67 1007.69 1007.86 1008.11 1008.35 1008.52 1008.58 1008.54 1008.43 1008.30 1008.20 1008.18 1008.26 1008.43 1008.66 1008.91 1009.13 1009.29 1009.37 1009.38 1009.33 1009.28 1009.24 1009.26 1009.33 1009.46 1009.62 1009.78 1009.90 1009.97 1009.96 1009.89 1009.77 1009.62 1009.46 1009.32
1008.42 1009.14 1009.98 1010.80 1011.47 1011.88 1011.96 1011.72 1011.22 1010.55 1009.84 1009.23 1008.80 1008.59 1008.61 1008.80 1009.08 1009.37 1009.59 1009.69 1009.67 1009.54 1009.36 1009.18 1009.05 1009.01 1009.04 1009.14 1009.28 1009.41 1009.49 1009.52 1009.49 1009.42 1009.34 1009.28 1009.27 1009.30 1009.39 1009.51 1009.64 1009.73 1009.77 1009.74 1009.65 1009.51 1009.34 1009.16 1008.99
1008.52 1009.30 1010.21 1011.11 1011.86 1012.34 1012.50 1012.33 1011.88 1011.24 1010.55 1009.93 1009.49 1009.27 1009.28 1009.47 1009.78 1010.10 1010.36 1010.50 1010.52 1010.41 1010.23 1010.02 1009.83 1009.69 1009.64 1009.64 1009.68 1009.73 1009.75 1009.73 1009.66 1009.56 1009.45 1009.36 1009.30 1009.29 1009.33 1009.39 1009.46 1009.51 1009.51 1009.46 1009.34 1009.18 1008.98 1008.77 1008.57
1008.49 1009.26 1010.18 1011.09 1011.88 1012.43 1012.66 1012.57 1012.19 1011.63 1010.99 1010.41 1009.97 1009.75 1009.75 1009.93 1010.23 1010.56 1010.85 1011.04 1011.10 1011.03 1010.87 1010.66 1010.45 1010.28 1010.16 1010.10 1010.07 1010.06 1010.03 1009.97 1009.86 1009.73 1009.58 1009.45 1009.34 1009.27 1009.24 1009.23 1009.24 1009.23 1009.19 1009.10 1008.96 1008.77 1008.55 1008.31 1008.07
1008.36 1009.08 1009.94 1010.83 1011.62 1012.21 1012.52 1012.52 1012.26 1011.80 1011.25 1010.73 1010.33 1010.11 1010.09 1010.25 1010.53 1010.85 1011.14 1011.35 1011.44 1011.41 1011.29 1011.11 1010.91 1010.73 1010.58 1010.48 1010.41 1010.35 1010.28 1010.18 1010.05 1009.88 1009.69 1009.51 1009.34 1009.19 1009.09 1009.01 1008.94 1008.87 1008.78 1008.66 1008.50 1008.30 1008.06 1007.80 1007.53
1008.25 1008.85 1009.62 1010.44 1011.21 1011.83 1012.21 1012.32 1012.19 1011.87 1011.44 1011.01 1010.67 1010.46 1010.42 1010.53 1010.76 1011.04 1011.30 1011.50 1011.60 1011.61 1011.52 1011.36 1011.19 1011.01 1010.86 1010.74 1010.65 1010.56 1010.46 1010.33 1010.16 1009.96 1009.74 1009.50 1009.27 1009.06 1008.87 1008.72 1008.58 1008.45 1008.32 1008.17 1008.00 1007.79 1007.56 1007.29 1007.00
1008.24 1008.72 1009.37 1010.11 1010.83 1011.45 1011.90 1012.12 1012.13 1011.95 1011.66 1011.33 1011.04 1010.85 1010.78 1010.83 1010.99 1011.19 1011.40 1011.56 1011.64 1011.65 1011.58 1011.45 1011.28 1011.12 1010.97 1010.84 1010.72 1010.61 1010.49 1010.34 1010.16 1009.93 1009.68 1009.40 1009.12 1008.85 1008.60 1008.37 1008.17 1008.00 1007.83 1007.67 1007.49 1007.30 1007.08 1006.83 1006.55
Thickness
5864 5867 5868 5862 5844 5838 5848 5867 5876 5874 5877 5888 5891 5886 5869 5857 5847 5833 5866 5877 5869 5855 5845 5838 5833 5828 5824 5821 5817 5813 5810 5806 5803 5800 5797 5794 5791 5788 5785 5783 5780 5778 5775 5772 5770 5768 5766 5764 5762
5870 5876 5869 5856 5832 5828 5845 5868 5868 5874 5886 5895 5891 5886 5871 5860 5868 5865 5870 5873 5866 5854 5844 5839 5832 5827 5823 5819 5815 5812 5808 5805 5802 5798 5795 5792 5789 5787 5784 5781 5779 5776 5774 5772 5769 5767 5765 5764 5762
5872 5877 5861 5852 5835 5836 5847 5870 5875 5884 5894 5891 5882 5880 5868 5859 5869 5869 5871 5873 5864 5853 5845 5837 5831 5826 5821 5817 5813 5810 5807 5803 5800 5797 5794 5791 5788 5785 5782 5780 5777 5775 5773 5771 5769 5767 5765 5763 5762
5875 5874 5862 5849 5843 5863 5871 5880 5887 5884 5888 5893 5884 5867 5866 5875 5876 5874 5875 5872 5861 5853 5845 5835 5829 5824 5820 5815 5811 5808 5804 5801 5798 5795 5792 5789 5786 5784 5781 5778 5776 5774 5772 5770 5768 5766 5765 5763 5762
5879 5865 5852 5843 5846 5870 5885 5891 5892 5879 5879 5884 5878 5858 5854 5872 5880 5876 5874 5870 5861 5854 5844 5833 5828 5822 5818 5813 5809 5806 5802 5799 5796 5793 5790 5787 5785 5782 5780 5777 5775 5773 5771 5769 5768 5766 5765 5763 5762
5864 5867 5848 5841 5846 5866 5884 5893 5891 5879 5875 5880 5875 5858 5852 5870 5871 5871 5873 5869 5865 5855 5843 5832 5826 5821 5816 5811 5807 5804 5800 5797 5794 5791 5788 5785 5783 5780 5778 5776 5774 5772 5770 5769 5767 5766 5764 5763 5762
5855 5853 5848 5856 5853 5860 5879 5896 5887 5878 5876 5881 5882 5857 5852 5863 5869 5872 5870 5869 5866 5857 5843 5831 5825 5819 5814 5810 5806 5802 5799 5795 5792 5790 5787 5784 5781 5779 5777 5775 5773 5772 5770 5768 5767 5765 5764 5763 5762
5869 5855 5851 5863 5861 5864 5885 5894 5895 5886 5876 5890 5889 5860 5848 5860 5870 5869 5866 5866 5862 5854 5842 5833 5826 5820 5814 5809 5805 5801 5798 5794 5791 5788 5786 5783 5780 5779 5777 5775 5773 5771 5770 5768 5767 5765 5764 5763 5762
5869 5843 5843 5863 5864 5870 5888 5887 5894 5896 5884 5885 5889 5880 5871 5870 5869 5861 5856 5856 5852 5849 5842 5836 5828 5822 5817 5812 5807 5801 5797 5794 5790 5787 5785 5782 5780 5780 5779 5777 5775 5772 5770 5768 5767 5765 5764 5762 5762
5858 5836 5853 5879 5882 5879 5884 5884 5888 5877 5865 5860 5863 5867 5869 5867 5861 5852 5847 5845 5843 5841 5840 5838 5830 5824 5820 5817 5809 5802 5798 5794 5790 5789 5786 5782 5780 5780 5781 5780 5776 5773 5770 5768 5766 5765 5763 5761 5761
5854 5845 5862 5876 5886 5885 5882 5886 5891 5874 5849 5842 5836 5836 5847 5856 5855 5849 5846 5845 5841 5839 5837 5836 5830 5825 5821 5816 5810 5805 5802 5798 5792 5789 5786 5783 5781 5779 5780 5779 5777 5773 5769 5766 5765 5763 5761 5761 5762
5851 5855 5864 5870 5879 5875 5875 5881 5880 5873 5861 5860 5846 5837 5839 5849 5850 5848 5845 5844 5840 5837 5835 5833 5829 5822 5818 5815 5811 5806 5803 5799 5795 5791 5786 5784 5780 5778 5777 5776 5774 5771 5768 5766 5765 5764 5763 5762 5762
5845 5850 5861 5868 5870 5870 5871 5870 5872 5869 5873 5866 5855 5848 5846 5850 5853 5852 5849 5845 5839 5833 5832 5830 5826 5819 5814 5809 5805 5804 5800 5798 5795 5790 5786 5783 5779 5775 5774 5772 5770 5767 5766 5765 5762 5762 5762 5760 5760
5841 5846 5853 5861 5863 5865 5860 5863 5867 5869 5877 5862 5852 5847 5849 5856 5854 5851 5846 5841 5836 5832 5829 5827 5822 5816 5810 5804 5800 5797 5796 5793 5790 5787 5783 5780 5776 5772 5768 5766 5763 5762 5761 5760 5759 5758 5757 5756 5756
5841 5831 5834 5845 5853 5859 5858 5847 5860 5876 5876 5864 5856 5854 5856 5856 5854 5849 5845 5840 5836 5831 5829 5823 5817 5813 5805 5800 5795 5793 5791 5789 5786 5783 5780 5776 5772 5767 5764 5761 5759 5758 5758 5756 5755 5754 5753 5752 5752
5828 5817 5811 5837 5854 5860 5847 5827 5859 5875 5864 5854 5853 5854 5851 5850 5849 5847 5844 5837 5834 5829 5824 5820 5815 5808 5801 5795 5790 5788 5787 5785 5781 5778 5775 5771 5767 5763 5760 5757 5756 5755 5754 5753 5751 5750 5748 5747 5746
5811 5804 5812 5836 5860 5858 5845 5832 5854 5864 5854 5843 5838 5838 5842 5839 5837 5837 5837 5832 5828 5823 5817 5812 5808 5802 5796 5790 5785 5782 5779 5777 5775 5773 5770 5765 5762 5759 5757 5754 5754 5753 5751 5750 5749 5749 5746 5743 5742
5805 5817 5824 5832 5850 5845 5832 5829 5843 5849 5840 5835 5830 5826 5830 5826 5826 5828 5826 5823 5819 5814 5808 5803 5798 5794 5789 5784 5780 5776 5772 5769 5769 5767 5763 5759 5756 5755 5752 5751 5750 5750 5748 5746 5745 5743 5743 5741 5740
5813 5813 5816 5828 5838 5828 5821 5822 5833 5838 5831 5828 5823 5819 5815 5816 5818 5816 5812 5811 5807 5802 5796 5790 5786 5782 5778 5773 5770 5767 5764 5763 5762 5761 5758 5754 5752 5750 5748 5746 5745 5745 5743 5742 5741 5740 5737 5737 5738
5807 5802 5806 5818 5828 5820 5811 5815 5830 5831 5824 5819 5810 5804 5806 5803 5801 5799 5796 5795 5791 5786 5781 5779 5775 5771 5768 5765 5763 5762 5759 5758 5758 5757 5754 5750 5747 5745 5744 5742 5740 5739 5738 5737 5737 5735 5732 5732 5733
5800 5797 5798 5798 5808 5814 5805 5800 5812 5816 5813 5806 5799 5794 5787 5786 5784 5780 5778 5777 5774 5772 5769 5768 5766 5762 5760 5758 5757 5756 5753 5749 5748 5748 5747 5746 5743 5741 5739 5737 5735 5734 5732 5732 5731 5730 5728 5725 5726
5786 5800 5797 5794 5788 5785 5793 5773 5793 5797 5788 5777 5771 5766 5766 5768 5768 5766 5764 5763 5762 5762 5761 5759 5754 5753 5752 5751 5748 5743 5740 5737 5738 5740 5741 5740 5739 5737 5735 5733 5731 5729 5728 5727 5726 5727 5723 5721 5719
5792 5802 5796 5791 5783 5777 5782 5768 5776 5786 5764 5757 5754 5755 5754 5759 5760 5756 5753 5749 5747 5750 5747 5745 5743 5741 5741 5740 5737 5734 5732 5732 5733 5732 5732 5731 5732 5733 5732 5730 5728 5725 5723 5723 5722 5720 5719 5717 5716
5803 5796 5791 5784 5767 5743 5747 5740 5752 5765 5761 5756 5754 5754 5754 5754 5752 5748 5745 5741 5737 5736 5734 5732 5730 5729 5729 5728 5726 5724 5722 5721 5720 5720 5720 5722 5724 5727 5728 5727 5724 5721 5719 5718 5717 5716 5715 5714 5713
5793 5772 5751 5735 5717 5709 5727 5730 5747 5763 5766 5761 5755 5753 5750 5747 5742 5738 5733 5729 5727 5725 5722 5718 5716 5715 5716 5715 5713 5713 5712 5712 5711 5710 5711 5712 5715 5717 5719 5719 5716 5714 5713 5713 5712 5711 5710 5710 5709
5783 5774 5748 5729 5730 5734 5733 5734 5737 5744 5749 5752 5750 5746 5743 5739 5733 5727 5723 5718 5714 5712 5709 5706 5704 5701 5701 5700 5699 5700 5700 5700 5700 5700 5701 5702 5704 5707 5709 5709 5708 5708 5707 5707 5706 5706 5706 5707 5706
5779 5776 5783 5764 5760 5754 5754 5734 5724 5728 5727 5734 5738 5737 5732 5728 5723 5718 5713 5709 5705 5701 5698 5695 5692 5689 5688 5687 5686 5686 5686 5686 5686 5687 5689 5691 5692 5695 5697 5698 5698 5699 5699 5700 5699 5699 5700 5701 5702
5797 5789 5775 5757 5736 5731 5748 5734 5719 5712 5714 5721 5723 5721 5720 5717 5714 5709 5704 5699 5695 5691 5688 5685 5681 5678 5675 5673 5672 5672 5671 5672 5673 5674 5675 5677 5679 5682 5684 5686 5687 5689 5691 5692 5693 5693 5694 5695 5696
5783 5780 5772 5762 5753 5731 5723 5725 5738 5722 5716 5715 5715 5713 5708 5704 5700 5696 5692 5688 5684 5680 5676 5672 5668 5665 5662 5660 5658 5656 5656 5656 5656 5657 5659 5662 5664 5668 5671 5674 5676 5678 5681 5683 5685 5686 5688 5689 5690
5781 5774 5766 5743 5737 5739 5728 5713 5732 5723 5716 5711 5705 5700 5695 5691 5687 5683 5678 5673 5669 5664 5660 5656 5652 5649 5646 5645 5643 5641 5640 5639 5639 5640 5642 5645 5647 5651 5656 5660 5664 5668 5671 5674 5676 5678 5681 5682 5683